Natchitoches, LA

8:17 AM CDT on August 27, 2016 (GMT -0500)
Natchitoches Regional

Weather History for KIER - February, 2013

Change the Weather History Date:

Sunday, February 3, 2013

  Actual Average Record
Temperature  
Mean Temperature 51 °F -  
Max Temperature 68 °F 59 °F 82 °F (1974)
Min Temperature 34 °F 37 °F 5 °F (1951)
Degree Days  
Heating Degree Days 14    
Growing Degree Days 1 (Base 50)    
Moisture  
Dew Point 38 °F    
Average Humidity 73    
Maximum Humidity 100    
Minimum Humidity 27    
Precipitation  
Precipitation 0.00 in - - ()
Sea Level Pressure  
Sea Level Pressure 30.23 in    
Wind  
Wind Speed 1 mph (NW)    
Max Wind Speed 8 mph    
Max Gust Speed -    
Visibility 10 miles    
Events      
Averages and records for this station are not official NWS values.
T = Trace of Precipitation, MM = Missing Value Source: NWS Daily Summary

Daily Weather History Graph

Daily Weather History Graph

Search for Another Location

Airport or City:

Trip Planner

Search our weather history database for the weather conditions in past years. The results will help you decide how hot, cold, wet, or windy it might be!

Date:

Astronomy

Feb. 03, 2013 Rise Set
Actual Time 7:03 AM CST 5:48 PM CST
Civil Twilight 6:38 AM CST 6:14 PM CST
Nautical Twilight 6:09 AM CST 6:43 PM CST
Astronomical Twilight 5:40 AM CST 7:12 PM CST
Moon 12:31 AM CST (2/3) 11:28 AM CST (2/3)
Length of Visible Light 11h 35m
Length of Day
10h 44m
Waning Gibbous, 48% of the Moon is Illuminated
Feb 3
Waning Gibbous
Feb 10
New
Feb 17
First Quarter
Feb 25
Full
Mar 4
Last Quarter

Hourly Weather History & Observations

Time (CST) Temp. Windchill Dew Point Humidity Pressure Visibility Wind Dir Wind Speed Gust Speed Precip Events Conditions
12:15 AM 45.5 °F - 44.4 °F 96% 30.27 in 10.0 mi Calm Calm - N/A   Clear
12:35 AM 44.4 °F - 43.5 °F 97% 30.28 in 10.0 mi Calm Calm - N/A   Clear
12:55 AM 43.7 °F - 42.8 °F 97% 30.27 in 10.0 mi Calm Calm - N/A   Clear
1:35 AM 41.7 °F - 41.4 °F 99% 30.27 in 10.0 mi Calm Calm - N/A   Clear
1:55 AM 41.0 °F - 40.6 °F 99% 30.27 in 10.0 mi Calm Calm - N/A   Clear
2:15 AM 40.3 °F - 39.9 °F 99% 30.27 in 10.0 mi Calm Calm - N/A   Clear
2:35 AM 39.4 °F - 39.2 °F 99% 30.27 in 10.0 mi Calm Calm - N/A   Clear
2:55 AM 39.2 °F - 39.2 °F 100% 30.27 in 10.0 mi Calm Calm - N/A   Clear
3:15 AM 39.0 °F - 39.0 °F 100% 30.27 in 10.0 mi Calm Calm - N/A   Clear
3:35 AM 38.8 °F - 38.3 °F 98% 30.27 in 10.0 mi Calm Calm - N/A   Clear
3:55 AM 38.7 °F - 38.1 °F 98% 30.27 in 10.0 mi Calm Calm - N/A   Clear
4:15 AM 38.1 °F - 37.6 °F 98% 30.27 in 10.0 mi Calm Calm - N/A   Clear
4:35 AM 37.4 °F - 36.9 °F 98% 30.27 in 10.0 mi Calm Calm - N/A   Clear
4:55 AM 37.0 °F - 36.9 °F 99% 30.28 in 10.0 mi Calm Calm - N/A   Clear
5:15 AM 36.9 °F - 36.3 °F 98% 30.28 in 10.0 mi Calm Calm - N/A   Clear
5:35 AM 35.8 °F - 35.8 °F 100% 30.29 in 10.0 mi Calm Calm - N/A   Clear
5:55 AM 34.9 °F - 34.5 °F 99% 30.29 in 10.0 mi Calm Calm - N/A   Clear
6:15 AM 35.2 °F - 35.2 °F 100% 30.29 in 10.0 mi Calm Calm - N/A   Clear
6:35 AM 34.7 °F - 34.5 °F 99% 30.29 in 10.0 mi Calm Calm - N/A   Clear
6:55 AM 34.3 °F - 34.3 °F 100% 30.29 in 10.0 mi Calm Calm - N/A   Clear
7:15 AM 34.7 °F - 34.7 °F 100% 30.30 in 10.0 mi Calm Calm - N/A   Clear
7:35 AM 34.7 °F - 34.7 °F 100% 30.30 in 10.0 mi Calm Calm - N/A   Clear
7:55 AM 36.5 °F - 36.5 °F 100% 30.30 in 10.0 mi Calm Calm - N/A   Clear
8:15 AM 40.5 °F - 39.4 °F 96% 30.31 in 10.0 mi Calm Calm - N/A   Clear
8:35 AM 43.5 °F - 40.6 °F 90% 30.32 in 10.0 mi Calm Calm - N/A   Clear
8:55 AM 46.6 °F - 41.9 °F 84% 30.32 in 10.0 mi Calm Calm - N/A   Clear
9:15 AM 49.8 °F - 44.1 °F 81% 30.32 in 10.0 mi Calm Calm - N/A   Clear
9:35 AM 51.6 °F - 42.3 °F 70% 30.32 in 10.0 mi Calm Calm - N/A   Clear
9:55 AM 54.5 °F - 43.5 °F 66% 30.32 in 10.0 mi Calm Calm - N/A   Clear
10:15 AM 57.0 °F - 38.8 °F 51% 30.32 in 10.0 mi Calm Calm - N/A   Clear
10:55 AM 59.4 °F - 39.2 °F 47% 30.32 in 10.0 mi Calm Calm - N/A   Clear
11:15 AM 62.1 °F - 35.8 °F 38% 30.31 in 10.0 mi North 4.6 mph - N/A   Clear
11:35 AM 63.3 °F - 36.1 °F 36% 30.30 in 10.0 mi North 5.8 mph - N/A   Clear
11:55 AM 64.0 °F - 35.2 °F 34% 30.29 in 10.0 mi NNW 3.5 mph - N/A   Clear
12:15 PM 65.1 °F - 34.3 °F 32% 30.28 in 10.0 mi Calm Calm - N/A   Clear
12:35 PM 65.7 °F - 35.1 °F 32% 30.27 in 10.0 mi NW 5.8 mph - N/A   Clear
12:55 PM 65.8 °F - 35.4 °F 32% 30.26 in 10.0 mi NW 8.1 mph - N/A   Clear
1:15 PM 66.2 °F - 34.9 °F 31% 30.24 in 10.0 mi NNW 3.5 mph - N/A   Clear
1:35 PM 66.9 °F - 34.3 °F 30% 30.23 in 10.0 mi Calm Calm - N/A   Clear
1:55 PM 67.1 °F - 35.1 °F 31% 30.22 in 10.0 mi North 3.5 mph - N/A   Clear
2:15 PM 67.5 °F - 34.3 °F 29% 30.21 in 10.0 mi Calm Calm - N/A   Clear
2:55 PM 68.0 °F - 36.0 °F 31% 30.19 in 10.0 mi Calm Calm - N/A   Clear
3:15 PM 68.4 °F - 35.6 °F 30% 30.19 in 10.0 mi Calm Calm - N/A   Clear
3:35 PM 68.0 °F - 34.9 °F 29% 30.19 in 10.0 mi West 4.6 mph - N/A   Clear
3:55 PM 68.2 °F - 35.1 °F 29% 30.18 in 10.0 mi West 3.5 mph - N/A   Clear
4:15 PM 67.8 °F - 32.7 °F 27% 30.17 in 10.0 mi Calm Calm - N/A   Clear
4:55 PM 66.2 °F - 33.3 °F 29% 30.16 in 10.0 mi Calm Calm - N/A   Clear
5:15 PM 64.8 °F - 35.2 °F 33% 30.16 in 10.0 mi Calm Calm - N/A   Clear
5:55 PM 58.3 °F - 37.0 °F 45% 30.15 in 10.0 mi Calm Calm - N/A   Clear
6:15 PM 53.4 °F - 39.9 °F 60% 30.15 in 10.0 mi Calm Calm - N/A   Clear
6:35 PM 52.0 °F - 38.7 °F 60% 30.15 in 10.0 mi WNW 3.5 mph - N/A   Clear
6:55 PM 51.3 °F - 39.9 °F 65% 30.15 in 10.0 mi Calm Calm - N/A   Clear
7:15 PM 49.1 °F - 41.2 °F 74% 30.15 in 10.0 mi Calm Calm - N/A   Clear
7:35 PM 48.6 °F - 42.1 °F 78% 30.15 in 10.0 mi Calm Calm - N/A   Clear
7:55 PM 47.3 °F - 41.2 °F 79% 30.15 in 10.0 mi Calm Calm - N/A   Clear
8:15 PM 45.5 °F - 42.4 °F 89% 30.15 in 10.0 mi Calm Calm - N/A   Clear
8:35 PM 45.5 °F - 40.5 °F 83% 30.15 in 10.0 mi Calm Calm - N/A   Clear
8:55 PM 44.6 °F - 40.3 °F 85% 30.14 in 10.0 mi Calm Calm - N/A   Clear
9:15 PM 43.7 °F - 41.2 °F 91% 30.14 in 10.0 mi Calm Calm - N/A   Clear
9:35 PM 43.5 °F - 40.3 °F 88% 30.14 in 10.0 mi Calm Calm - N/A   Clear
9:55 PM 42.8 °F - 40.1 °F 90% 30.14 in 10.0 mi Calm Calm - N/A   Clear
10:15 PM 43.0 °F - 40.6 °F 91% 30.13 in 10.0 mi Calm Calm - N/A   Clear
10:35 PM 43.3 °F - 40.3 °F 89% 30.12 in 10.0 mi Calm Calm - N/A   Clear
10:55 PM 42.8 °F - 39.2 °F 87% 30.11 in 10.0 mi Calm Calm - N/A   Clear
11:15 PM 42.1 °F 38.4 °F 39.2 °F 90% 30.12 in 10.0 mi SSW 5.8 mph - N/A   Clear
11:35 PM 41.7 °F - 38.1 °F 87% 30.11 in 10.0 mi Calm Calm - N/A   Clear
11:55 PM 43.2 °F - 38.3 °F 83% 30.10 in 10.0 mi Calm Calm - N/A   Clear